This is the latest recevied weather packets stored in our database for station/object NK0Z-13. If no packets are shown the sender has not sent any weather packets the latest 10 day(s).
| Time | Temp. | Humidity | Pressure | Rain* | Wind** | Luminosity | Snow |
|---|---|---|---|---|---|---|---|
| 1777971486 | 11.67° C | 67% | 1008.7 hPa | 0 mm | - | 0 W/m² | - |
| 1777970881 | 11.67° C | 65% | 1008.6 hPa | 0 mm | - | 0 W/m² | - |
| 1777970276 | 11.67° C | 65% | 1008.4 hPa | 0 mm | - | 0 W/m² | - |
| 1777969676 | 12.22° C | 66% | 1008.8 hPa | 0 mm | - | 0 W/m² | - |
| 1777969075 | 12.78° C | 62% | 1009.1 hPa | 0 mm | - | 0 W/m² | - |
| 1777968474 | 13.33° C | 63% | 1008.8 hPa | 0 mm | - | 0 W/m² | - |
| 1777967872 | 13.33° C | 63% | 1008.3 hPa | 0 mm | - | 0 W/m² | - |
| 1777967266 | 13.89° C | 63% | 1008.3 hPa | 0 mm | - | 0 W/m² | - |
| 1777966661 | 13.89° C | 63% | 1008.2 hPa | 0 mm | - | 0 W/m² | - |
| 1777966061 | 13.89° C | 64% | 1007.8 hPa | 0 mm | - | 0 W/m² | - |
| 1777965459 | 13.89° C | 68% | 1007.9 hPa | 0 mm | - | 0 W/m² | - |
| 1777964854 | 13.89° C | 69% | 1007.8 hPa | 0 mm | - | 0 W/m² | - |
| 1777964251 | 13.89° C | 68% | 1007.3 hPa | 0 mm | - | 0 W/m² | - |
| 1777963651 | 13.89° C | 70% | 1007.4 hPa | 0 mm | - | 0 W/m² | - |
| 1777963046 | 13.89° C | 70% | 1007.1 hPa | 0 mm | - | 0 W/m² | - |
| 1777962444 | 13.33° C | 73% | 1006.6 hPa | 0 mm | - | 0 W/m² | - |
| 1777961839 | 13.33° C | 78% | 1006.7 hPa | 0 mm | - | 0 W/m² | - |
| 1777961234 | 13.33° C | 80% | 1007 hPa | 0 mm | - | 0 W/m² | - |
| 1777960632 | 13.33° C | 81% | 1006.5 hPa | 0 mm | - | 0 W/m² | - |
| 1777960032 | 13.33° C | 82% | 1006.2 hPa | 0 mm | - | 0 W/m² | - |
| 1777959428 | 13.33° C | 84% | 1005.9 hPa | 0 mm | - | 0 W/m² | - |
| 1777958827 | 13.89° C | 84% | 1005.6 hPa | 0 mm | - | 0 W/m² | - |
| 1777958227 | 13.89° C | 85% | 1006.1 hPa | 0 mm | - | 0 W/m² | - |
| 1777957623 | 13.89° C | 85% | 1005.8 hPa | 0 mm | - | 0 W/m² | - |
| 1777957021 | 13.89° C | 84% | 1006.1 hPa | 0 mm | - | 0 W/m² | - |
* Rain latest hour (hover to see other rain measurements)
** Current wind speed in m/s (hover to see current wind gust speed)